Home   Weather   Chalon-sur-Saône   Past weeks

Flag for France Past Weather in Chalon-sur-Saône, Burgundy, France — Yesterday and Last 2 Weeks

Now
34 °F

Fog.


Feels Like: 30 °F
Forecast: 27 / 46 °F
Wind: 5 mph from West

Location: Dole Tavaux

Current Time: Dec 9, 2016 at 2:47:12 pm

Latest Report: Dec 9, 2016 at 2:00 pm


Visibility: 1 mi

Pressure: 30.48 "Hg

Humidity: 93%

Dew Point: 32 °F

Location of Chalon-sur-SaôneLocation

Past Weather in Chalon-sur-Saône — Graph

°F

Chalon-sur-Saône Temperature Yesterday

Maximum temperature yesterday: 32 °F (at 2:00 pm)
Minimum temperature yesterday: 27 °F (at 11:30 pm)
Average temperature yesterday: 29 °F

High & Low Weather Summary for the Past Weeks

 TemperatureHumidityPressure
High52 °F (Nov 24, 1:30 pm)100% (Nov 24, 8:00 pm)30.60 "Hg (Nov 24, 8:00 pm)
Low21 °F (Dec 9, 7:30 am)49% (Nov 28, 2:00 pm)29.77 "Hg (Nov 25, 3:30 am)
Average35 °F89%30.25 "Hg
* Reported Nov 24 1:00 pm — Dec 9 1:00 pm, Chalon-sur-Saône, Weather by CustomWeather, © 2016

Note: Actual official high and low records may vary slightly from our data, if they occured in-between our weather recording intervals... More about our weather records

Advertising

Chalon-sur-Saône Weather History for the Previous 24 Hours

Scroll right to see more
 ConditionsComfort  
Time TempWeatherWind HumidityBarometerVisibility
1:00 pm
Fri, Dec 9
32 °FIce fog.5 mph100%30.51 "Hg2 mi
12:30 pm32 °FIce fog.3 mph100%30.51 "Hg2 mi
12:00 pm32 °FIce fog.3 mph93%30.54 "Hg2 mi
11:30 am28 °FLow clouds.2 mph100%30.54 "Hg2 mi
11:00 am28 °FIce fog.2 mph93%30.54 "Hg2 mi
10:30 am27 °FIce fog.3 mph100%30.54 "Hg3 mi
10:00 am27 °FIce fog.2 mph93%30.54 "Hg3 mi
9:30 am25 °FIce fog.3 mph100%30.54 "Hg2 mi
9:00 am23 °FIce fog.2 mph93%30.54 "Hg1 mi
8:30 am21 °FLight snow. Ice fog.1 mph100%30.51 "Hg0 mi
8:00 am21 °FIce fog.No wind93%30.51 "Hg0 mi
7:30 am21 °FIce fog.2 mph100%30.51 "Hg1 mi
7:00 am23 °FIce fog.2 mph93%30.51 "Hg1 mi
6:30 am23 °FIce fog.1 mph93%30.51 "Hg1 mi
5:30 am23 °FIce fog.3 mph100%30.51 "Hg1 mi
5:00 am23 °FIce fog.1 mph100%30.51 "Hg0 mi
4:30 am25 °FIce fog.2 mph93%30.51 "Hg0 mi
4:00 am25 °FIce fog.2 mph93%30.54 "Hg1 mi
3:30 am25 °FIce fog.2 mph100%30.54 "Hg1 mi
3:00 am27 °FIce fog.2 mph93%30.54 "Hg1 mi
2:30 am25 °FIce fog.1 mph100%30.54 "Hg1 mi
2:00 am25 °FIce fog.3 mph93%30.54 "Hg1 mi
1:30 am25 °FIce fog.2 mph93%30.54 "Hg0 mi
1:00 am25 °FIce fog.2 mph100%30.54 "Hg0 mi
12:30 am27 °FIce fog.1 mph93%30.54 "Hg0 mi
12:00 am27 °FIce fog.1 mph100%30.54 "Hg0 mi
11:30 pm
Thu, Dec 8
27 °FIce fog.2 mph100%30.54 "Hg0 mi
11:00 pm28 °FIce fog.2 mph93%30.54 "Hg0 mi
10:30 pm28 °FIce fog.2 mph100%30.54 "Hg0 mi
10:00 pm28 °FIce fog.3 mph100%30.54 "Hg1 mi
9:30 pm28 °FIce fog.3 mph100%30.54 "Hg0 mi
9:00 pm28 °FIce fog.3 mph100%30.54 "Hg1 mi
8:30 pm28 °FIce fog.5 mph100%30.51 "Hg0 mi
8:00 pm28 °FIce fog.5 mph100%30.51 "Hg0 mi
7:30 pm28 °FIce fog.2 mph100%30.51 "Hg0 mi
7:00 pm30 °FIce fog.2 mph100%30.51 "Hg1 mi
6:30 pm30 °FIce fog.3 mph100%30.51 "Hg0 mi
6:00 pm32 °FIce fog.3 mph100%30.51 "Hg0 mi
5:30 pm32 °FIce fog.5 mph100%30.51 "Hg1 mi
5:00 pm32 °FIce fog.2 mph100%30.54 "Hg1 mi
4:30 pm32 °FIce fog.2 mph100%30.51 "Hg1 mi
4:00 pm32 °FIce fog.5 mph100%30.51 "Hg1 mi
3:30 pm32 °FIce fog.2 mph100%30.51 "Hg2 mi
3:00 pm32 °FIce fog.5 mph100%30.51 "Hg1 mi
2:30 pm32 °FIce fog.3 mph100%30.51 "Hg1 mi
2:00 pm32 °FIce fog.2 mph100%30.54 "Hg2 mi
Weather by CustomWeather, © 2016

See weather overviewHow to use our weather pages